860  
ASUS43 KFSD 201410  
RWRFSD  
 
WEATHER ROUNDUP FOR SE SOUTH DAKOTA/SW MINNESOTA/NW IOWA  
NATIONAL WEATHER SERVICE SIOUX FALLS SD  
800 AM CST WED FEB 20 2019  
 
NOTE: "FAIR" INDICATES FEW OR NO CLOUDS BELOW 12,000 FEET WITH NO  
SIGNIFICANT WEATHER AND OR S TO VISIBILITY
.  
 
 
SDZ038>040-050-052>070-201500-  
SOUTHEAST SOUTH DAKOTA  
 
CITY SKY/WX TMP DP RH WIND PRES REMARKS
 
BROOKINGS LGT SNOW 12 9 85 E17G23 29.65F FOG WCI -5  
CHAMBERLAIN LGT SNOW 14 14 98 CALM 29.64F  
HURON SNOW 14 11 87 E3 29.69F VSB 1/2  
MADISON LGT SNOW 14 14 100 E10 29.65F WCI 1  
MITCHELL LGT SNOW 16 12 84 SE8 29.68F VSB 1 WCI 5  
SIOUX FALLS LGT SNOW 19 16 88 E8 29.66F FOG WCI 9  
WINNER LGT SNOW 13 9 84 SE5 29.61F FOG WCI 5  
YANKTON LGT SNOW 16 16 100 CALM 29.68F FOG  

 
 
MNZ071-072-080-081-089-090-097-098-201500-  
SOUTHWEST MINNESOTA  
 
CITY SKY/WX TMP DP RH WIND PRES REMARKS
 
FAIRMONT LGT SNOW 23 21 93 E8 29.74F VSB 3/4 WCI 14  
JACKSON CLOUDY 21 19 93 E9 29.70F VSB 3/4 WCI 11  
LUVERNE LGT SNOW 18 14 86 E10 29.67F WCI 6  
MARSHALL LGT SNOW 18 16 93 E14G20 29.72F VSB 3/4 WCI 4  
MONTEVIDEO SNOW 18 16 93 SE15 29.76 VSB 1/2 WCI 3  
PIPESTONE LGT SNOW 16 14 93 E8 29.66F WCI 5  
REDWOOD FALLS SNOW 18 16 92 NE9 29.76F VSB 1/2 WCI 7  
TRACY LGT SNOW 18 16 94 E8 29.71F WCI 7  
WINDOM LGT SNOW 18 18 100 NE10 29.69F VSB 1 WCI 6  
WORTHINGTON LGT SNOW 18 16 93 E13 29.67F FOG WCI 4  

 
 
IAZ001>003-012>014-020>022-031-032-NEZ013-014-SDZ071-201500-  
NORTHWEST IOWA  
 
CITY SKY/WX TMP DP RH WIND PRES REMARKS
 
CHEROKEE LGT SNOW 23 23 99 E3 29.69F  
DENISON MIX PCPN 25 25 100 CALM 29.70F  
ESTHERVILLE SNOW 22 20 92 E9 29.69F VSB 1/4 WCI 12  
ORANGE CITY LGT SNOW 21 21 100 E6 29.66F WCI 14  
SHELDON LGT SNOW 21 21 100 E10 29.65F WCI 10  
SIOUX CITY LGT SNOW 20 19 96 SE5 29.68F FOG WCI 13  
SPENCER LGT SNOW 23 20 88 E8 29.69F FOG WCI 14  
STORM LAKE LGT SNOW 21 21 100 SE6 29.67F WCI 14  

 
 
ABBREVIATIONS USED IN REMARKS  
TC - TEMPERATURE IN CELSIUS  
WCI - WIND CHILL INDEX  
HX - HEAT INDEX  
VSB - VISIBILITY  
 
 
 
CLICK HERE TO GO TO PREVIOUS BULLETINS.

The Nexlab SD Page
The Nexlab IA Page
The Nexlab MN Page
The Nexlab NE Page Main Text Page